Regional Weather Roundup
Issued by NWS Cleveland, OH

Home | Current Version | Previous Version | Graphics & Text | Print | Product List | Glossary On
Versions: 1 2 3 4 5 6 7 8 9 10 11 12 13 14 15 16 17 18 19 20 21 22 23 24 25 26 27 28 29 30 31 32 33 34 35 36 37 38 39 40 41 42 43 44 45 46 47 48 49 50
000
ASUS41 KCLE 210210
RWRCLE
OHIO REGIONAL WEATHER ROUNDUP
NATIONAL WEATHER SERVICE WILMINGTON, OH
1000 PM EDT FRI APR 20 2018

NOTE: "FAIR" INDICATES FEW OR NO CLOUDS BELOW 12,000 FEET WITH NO
SIGNIFICANT WEATHER AND/OR OBSTRUCTIONS TO VISIBILITY.

OHZ001>008-015>018-024>027-034-035-043-044-210300-
   NORTHWEST OHIO

CITY           SKY/WX    TMP DP  RH WIND       PRES   REMARKS
DEFIANCE       FAIR      46  24  42 CALM      30.42S
FINDLAY        FAIR      46  22  38 SE7       30.43R
TOLEDO EXPRESS FAIR      46  29  51 E8        30.44R
TOLEDO EXEC    FAIR      43  27  53 E7        30.45S
LIMA           FAIR      42  26  53 SE6       30.42S
$$

OHZ009>014-019>023-028>033-038-089-210300-
   NORTHEAST OHIO

CITY           SKY/WX    TMP DP  RH WIND       PRES   REMARKS
CLE-HOPKINS    FAIR      44  20  38 NE5       30.48S
CLE-LAKEFRONT  FAIR      42  27  55 CALM      30.45F
CUY CO. ARPT   CLEAR     37  23  56 CALM      30.46F
LORAIN-ELYRIA  FAIR      42  20  41 NE8       30.46S
ASHTABULA      FAIR      37  22  54 NW3       30.45F
AKRON-CANTON   FAIR      40  20  44 N5        30.44S
WOOSTER        FAIR      35  26  69 CALM      30.45S
MANSFIELD      FAIR      42  19  39 NE3       30.44S
YOUNGSTOWN     FAIR      39  21  48 CALM      30.44S
$$

OHZ042-051>053-060>062-070>072-077>081-210300-
  SOUTHWEST OHIO

CITY           SKY/WX    TMP DP  RH WIND       PRES   REMARKS
CINC-COVINGTON FAIR      54  23  30 NE9       30.40S
CINC-LUNKEN    FAIR      46  38  73 CALM      30.42S
HAMILTON       FAIR      44  32  62 NE3       30.43R
DAYTON         FAIR      47  25  42 NE5       30.43R
WRIGHT-PAT AFB FAIR      47  28  48 N3        30.42S
DAYTON GENERAL FAIR      48  25  40 NE5       30.41S
WILMINGTON     FAIR      46  29  51 NE6       30.41S
$$

OHZ036-037-039>041-045>050-054>059-063>069-073>076-082>088-210300-
  CENTRAL AND SOUTHEAST OHIO

CITY           SKY/WX    TMP DP  RH WIND       PRES   REMARKS
COLUMBUS       FAIR      48  24  39 NE9       30.42S
OSU AIRPORT    FAIR      45  26  47 NE9       30.42S
BOLTON FIELD   FAIR      44  28  53 NE6       30.43S
RICKENBACK AFB FAIR      47  26  44 N6        30.42S
NEWARK         FAIR      47  22  37 NE3       30.43R
MARION         FAIR      41  24  51 E6        30.44S
LANCASTER      FAIR      42  33  70 NE5       30.43R
ZANESVILLE     FAIR      46  20  35 NE3       30.44R
NEW PHILLY     FAIR      44  19  36 N7        30.45R
$$



USA.gov is the U.S. government's official web portal to all federal, state and local government web resources and services.